Weather History for Mountain Home, AR

Change the Weather History Date:

Tuesday, February 19, 2013

  Actual Average (KHRO) Record (KHRO)
Temperature  
Mean Temperature 36 °F 41 °F  
Max Temperature 45 °F 52 °F 72 °F (1981)
Min Temperature 28 °F 31 °F 2 °F (1903)
Degree Days  
Heating Degree Days 28 24  
Month to date heating degree days 486  
Since 1 July heating degree days 2972  
Cooling Degree Days 0 0  
Month to date cooling degree days 0  
Year to date cooling degree days 0  
Moisture  
Dew Point 15 °F    
Average Humidity 48    
Maximum Humidity 72    
Minimum Humidity 23    
Precipitation  
Precipitation 0.00 in 0.10 in 1.95 in (1911)
Month to date precipitation 1.73  
Year to date precipitation 4.29  
Snow  
Snow 0.00 in 0.10 in 8.00 in (1902)
Month to date snowfall 2.3  
Since 1 July snowfall 8.3  
Snow Depth -    
Sea Level Pressure  
Sea Level Pressure 30.22 in    
Wind  
Wind Speed 6 mph (NW)    
Max Wind Speed 12 mph    
Max Gust Speed 22 mph    
Visibility 10 miles    
Events      
T = Trace of Precipitation, MM = Missing Value Source: NWS Daily Summary

Daily Weather History Graph

Daily Weather History Graph

Search for Another Location

Airport:

Trip Planner

Search our weather history database for the weather conditions in past years. The results will help you decide how hot, cold, wet, or windy it might be!

Date:

Astronomy

Feb. 19, 2013 Rise Set
Actual Time 6:52 AM CST 5:55 PM CST
Civil Twilight 6:26 AM CST 6:21 PM CST
Nautical Twilight 5:56 AM CST 6:51 PM CST
Astronomical Twilight 5:26 AM CST 7:21 PM CST
Moon 12:32 PM CST (2/19) 2:19 AM CST (2/19)
Length of Visible Light 11h 54m
Length of Day
11h 02m
Waxing Gibbous, 67% of the Moon is Illuminated
Feb 19
Waxing Gibbous
Feb 25
Full
Mar 4
Last Quarter
Mar 11
New
Mar 19
First Quarter

Hourly Weather History & Observations

Time (CST) Temp. Windchill Dew Point Humidity Pressure Visibility Wind Dir Wind Speed Gust Speed Precip Events Conditions
12:53 AM 35.1 °F 29.3 °F 27.0 °F 72% 30.07 in 10.0 mi WNW 6.9 mph 17.3 mph N/A   Partly Cloudy
1:53 AM 33.1 °F 24.9 °F 21.9 °F 64% 30.10 in 10.0 mi NW 10.4 mph 16.1 mph N/A   Clear
2:53 AM 30.9 °F 25.2 °F 21.0 °F 67% 30.12 in 10.0 mi NNW 5.8 mph - N/A   Clear
3:53 AM 30.0 °F 24.1 °F 19.0 °F 64% 30.12 in 10.0 mi NW 5.8 mph - N/A   Clear
4:53 AM 30.0 °F 23.2 °F 19.0 °F 64% 30.14 in 10.0 mi Variable 6.9 mph - N/A   Clear
5:53 AM 28.9 °F 23.9 °F 18.0 °F 64% 30.16 in 10.0 mi Variable 4.6 mph - N/A   Clear
6:53 AM 28.9 °F - 17.1 °F 61% 30.18 in 10.0 mi Calm Calm - N/A   Clear
7:53 AM 30.9 °F 24.3 °F 17.1 °F 57% 30.20 in 10.0 mi Variable 6.9 mph - N/A   Clear
8:53 AM 33.1 °F 26.1 °F 17.1 °F 52% 30.23 in 10.0 mi NW 8.1 mph 21.9 mph N/A   Clear
9:53 AM 36.0 °F 28.0 °F 18.0 °F 48% 30.24 in 10.0 mi NNW 11.5 mph 20.7 mph N/A   Clear
10:53 AM 37.9 °F 31.5 °F 18.0 °F 45% 30.26 in 10.0 mi WNW 9.2 mph 19.6 mph N/A   Clear
12:53 PM 43.0 °F 37.7 °F 16.0 °F 34% 30.26 in 10.0 mi WNW 9.2 mph 21.9 mph N/A   Clear
1:53 PM 45.0 °F 40.1 °F 12.0 °F 26% 30.25 in 10.0 mi WNW 9.2 mph 21.9 mph N/A   Clear
3:53 PM 44.1 °F 38.1 °F 8.1 °F 23% 30.25 in 10.0 mi West 11.5 mph 20.7 mph N/A   Clear
4:53 PM 44.1 °F 41.5 °F 8.1 °F 23% 30.24 in 10.0 mi Variable 4.6 mph - N/A   Clear
6:53 PM 37.9 °F 34.4 °F 10.0 °F 32% 30.27 in 10.0 mi NNW 4.6 mph - N/A   Clear
7:53 PM 35.1 °F - 10.0 °F 35% 30.28 in 10.0 mi Calm Calm - N/A   Clear
8:53 PM 33.1 °F - 10.9 °F 40% 30.26 in 10.0 mi Calm Calm - N/A   Clear
9:53 PM 32.0 °F 28.7 °F 12.0 °F 44% 30.30 in 10.0 mi NW 3.5 mph - N/A   Clear
10:53 PM 30.0 °F - 12.9 °F 49% 30.30 in 10.0 mi Calm Calm - N/A   Clear
11:53 PM 28.9 °F 25.2 °F 10.9 °F 47% 30.30 in 10.0 mi North 3.5 mph - N/A   Clear